Meath Environmental Platform

Observations for Trim Patrick St

Time AQI Temp °C Hum % Pres Pa CO μg/m³ H₂S μg/m³ NO μg/m³ NO₂ μg/m³ O₃ μg/m³ SO₂ μg/m³ PM1 μg/m³ PM2.5 μg/m³ PM10 μg/m³
Friday 31 July 2026
05:21 2 10.1 81 38,460 0.4 0 4.25 18.46 29.9 0 3.71 7.24 7.97
05:20 2 10.1 81 38,460 0.4 0.17 4.23 13.95 23.19 0 4.57 9.33 10.26
05:19 2 10.1 81 38,460 0.41 1.07 4.25 23.36 41.61 0 3.71 7.27 8
05:18 2 10.1 81 38,460 0.41 0.12 4.36 16.62 27.82 0 2.86 5.84 6.42
05:17 2 10.1 81 38,460 0.4 0 4.34 15.43 26.68 0 3.71 7.24 7.97
05:16 2 10.1 81 38,460 0.4 0.5 4.39 16.41 27.09 0 4.57 7.94 8.73
05:15 2 10.1 81 38,460 0.42 1.15 4.44 19.08 38.51 0 3.71 7.26 7.99
05:14 2 10.1 81 38,460 0.43 0.35 4.43 17.71 32.16 0 3.71 7.26 7.99
05:13 2 10.1 81 38,460 0.4 0 4.34 14.55 23.48 0 4.57 7.27 8
05:12 2 10.1 80 38,460 0.4 0.81 4.4 18.96 38.01 0 4.57 8.01 8.81
05:11 2 10.1 80 38,460 0.41 0.71 4.4 17.62 34.27 0 3.71 7.3 8.03
05:10 2 10.1 80 38,460 0.39 1.07 4.42 16.39 27.81 0 3.71 7.35 8.08
05:09 2 10.1 81 38,460 0.4 0.74 4.46 16.16 27.25 0 3.71 7.27 8
05:08 2 10.2 81 38,460 0.39 0.4 4.49 18.31 40.54 0 4.57 7.97 8.77
05:07 2 10.2 80 38,460 0.39 0.74 4.55 16.05 29.04 0 3.71 7.29 8.01
05:06 2 10.2 80 38,460 0.39 0.71 4.52 16.94 30.13 0 3.71 7.31 8.04
05:05 2 10.2 80 38,460 0.39 1.59 4.48 22.81 44.11 0 2.86 6.62 7.28
05:04 2 10.2 81 38,460 0.4 0 4.47 14.46 24.05 0 4.57 7.26 7.99
05:03 2 10.2 81 38,460 0.4 0.76 4.4 14.44 23.91 0 3.71 7.28 8.01
05:02 2 10.2 81 38,460 0.4 1 4.26 19.72 37.35 0 3.71 7.97 8.77